Find Starlink 37870

NORAD ID: 69432 Int'l Des: 2026-126 Owner: SPXS Country: US Constellation: starlink operational
LEOCIRCULARRETROGRADE

現在のビュー

3D地球を読み込み中...

About Starlink 37870

Starlink 37870 (NORAD 69432) is a starlink constellation satellite launched Jun 7, 2026 by SPXS of US. It operates in LEO, CIRCULAR, RETROGRADE orbit with a mass of 575.00 kg.

次回通過

Passes for default location (London). Set your location on the main map for personalized predictions.

高度履歴

Loading altitude history...

軌道要素

1 69432U 26126N 26207.25003472 -.00738510 00000-0 -12481-1 0 9994
2 69432 97.2848 69.1821 0001314 95.6324 13.9505 15.54128266 5906
Epoch: Jul 26, 2026 • Age: 5 hours

現在のステータス

高度 434.8 km
遠地点 / 近地点 N/A
速度 7.65 km/s
衛星直下点 -81.63°S, 75.84°E
打ち上げ日 Jun 7, 2026
運用期間 0.1 years
タイプ internet

技術仕様

分類 Payload
質量 575.00 kg
乾燥質量 530.00 kg
総質量 575.00 kg
長さ 0.30 m
直径 4.10 m
スパン 29.00 m
形状 Box + pan
製造者 SPXS
バスタイプ Starlink V2MO
フェーズステータス In Orbit
所有者/国 SPXS/US

Most Searched